• în România
  • Lista ţărilor
  • Pe 7 zile
  • Temperatura apei
  • Hartă satelitară
  • Meteo pe hartă
  • Widget-uri
  • user-avatar
    Intrare

    Meteo pe oră la Oran

    Astăzi, 17 Ianuarie, Marţi

    Timp Temperatura Precipitaţii Vânt Presiune Umiditate
    00:00 +11°C° 0,1 mm 6 m/s 754 mmHg 66%
    01:00 +10°C° 0 mm 6 m/s 754 mmHg 68%
    02:00 +10°C° 0 mm 6 m/s 753 mmHg 70%
    03:00 +9°C° 0 mm 6 m/s 753 mmHg 72%
    04:00 +9°C° 0 mm 6 m/s 753 mmHg 71%
    05:00 +9°C° 0 mm 6 m/s 753 mmHg 71%
    06:00 +10°C° 0 mm 6 m/s 752 mmHg 70%
    07:00 +10°C° 0,1 mm 7 m/s 752 mmHg 68%
    08:00 +11°C° 0,1 mm 8 m/s 752 mmHg 65%
    09:00 +12°C° 0,1 mm 8 m/s 752 mmHg 63%
    10:00 +12°C° 0,4 mm 8 m/s 752 mmHg 62%
    11:00 +13°C° 0,4 mm 9 m/s 752 mmHg 61%
    12:00 +13°C° 0,4 mm 9 m/s 752 mmHg 60%
    13:00 +13°C° 0,3 mm 8 m/s 752 mmHg 62%
    14:00 +12°C° 0,3 mm 7 m/s 752 mmHg 64%
    15:00 +13°C° 0,3 mm 6 m/s 752 mmHg 66%
    16:00 +11°C° 0,1 mm 6 m/s 752 mmHg 71%
    17:00 +9°C° 0,1 mm 6 m/s 752 mmHg 76%
    18:00 +8°C° 0,1 mm 6 m/s 752 mmHg 81%
    19:00 +8°C° 0 mm 6 m/s 752 mmHg 80%
    20:00 +7°C° 0 mm 6 m/s 752 mmHg 80%
    21:00 +7°C° 0 mm 5 m/s 752 mmHg 79%
    22:00 +7°C° 0 mm 5 m/s 752 mmHg 78%
    23:00 +6°C° 0 mm 5 m/s 752 mmHg 77%

    Mâine, 18 Ianuarie, Miercuri

    Timp Temperatura Precipitaţii Vânt Presiune Umiditate
    00:00 +6°C° 0 mm 5 m/s 752 mmHg 76%
    01:00 +6°C° 0,1 mm 5 m/s 753 mmHg 75%
    02:00 +6°C° 0,1 mm 5 m/s 753 mmHg 75%
    03:00 +6°C° 0,1 mm 5 m/s 753 mmHg 74%
    04:00 +6°C° 0,1 mm 5 m/s 753 mmHg 74%
    05:00 +5°C° 0,1 mm 5 m/s 752 mmHg 74%
    06:00 +5°C° 0,1 mm 5 m/s 752 mmHg 75%
    07:00 +5°C° 0,1 mm 5 m/s 753 mmHg 71%
    08:00 +6°C° 0,1 mm 5 m/s 753 mmHg 67%
    09:00 +6°C° 0,1 mm 5 m/s 753 mmHg 64%
    10:00 +7°C° 0 mm 5 m/s 753 mmHg 59%
    11:00 +7°C° 0 mm 5 m/s 753 mmHg 55%
    12:00 +8°C° 0 mm 5 m/s 753 mmHg 50%
    13:00 +8°C° 0,1 mm 5 m/s 752 mmHg 50%
    14:00 +8°C° 0,1 mm 5 m/s 752 mmHg 49%
    15:00 +8°C° 0,1 mm 5 m/s 751 mmHg 48%
    16:00 +8°C° 0,1 mm 5 m/s 751 mmHg 50%
    17:00 +7°C° 0,1 mm 6 m/s 751 mmHg 52%
    18:00 +5°C° 0,1 mm 7 m/s 751 mmHg 55%
    19:00 +5°C° 0,2 mm 7 m/s 751 mmHg 57%
    20:00 +5°C° 0,2 mm 7 m/s 751 mmHg 60%
    21:00 +5°C° 0,2 mm 7 m/s 751 mmHg 62%
    22:00 +5°C° 0,5 mm 7 m/s 751 mmHg 67%
    23:00 +4°C° 0,5 mm 8 m/s 750 mmHg 72%

    Poimâine, 19 Ianuarie, Joi

    Timp Temperatura Precipitaţii Vânt Presiune Umiditate
    00:00 +4°C° 0,5 mm 8 m/s 750 mmHg 77%
    01:00 +4°C° 0,1 mm 8 m/s 750 mmHg 79%
    02:00 +3°C° 0,1 mm 7 m/s 749 mmHg 81%
    03:00 +3°C° 0,1 mm 7 m/s 749 mmHg 83%
    04:00 +3°C° 0 mm 6 m/s 748 mmHg 83%
    05:00 +3°C° 0 mm 5 m/s 748 mmHg 83%
    06:00 +3°C° 0 mm 5 m/s 747 mmHg 82%
    07:00 +5°C° 0 mm 4 m/s 747 mmHg 80%
    08:00 +6°C° 0 mm 4 m/s 748 mmHg 77%
    09:00 +8°C° 0 mm 3 m/s 748 mmHg 74%
    10:00 +9°C° 0 mm 3 m/s 748 mmHg 69%
    11:00 +10°C° 0 mm 3 m/s 748 mmHg 64%
    12:00 +11°C° 0 mm 3 m/s 748 mmHg 59%
    13:00 +12°C° 0 mm 3 m/s 748 mmHg 58%
    14:00 +12°C° 0 mm 3 m/s 747 mmHg 56%
    15:00 +13°C° 0 mm 2 m/s 747 mmHg 54%
    16:00 +12°C° 0,1 mm 2 m/s 747 mmHg 61%
    17:00 +10°C° 0,1 mm 2 m/s 748 mmHg 67%
    18:00 +8°C° 0,1 mm 2 m/s 748 mmHg 73%
    19:00 +8°C° 0 mm 2 m/s 748 mmHg 73%
    20:00 +8°C° 0 mm 3 m/s 748 mmHg 73%
    21:00 +8°C° 0 mm 3 m/s 749 mmHg 74%
    22:00 +7°C° 0,1 mm 3 m/s 749 mmHg 74%
    23:00 +7°C° 0,1 mm 3 m/s 749 mmHg 75%

    20 Ianuarie, Vineri

    Timp Temperatura Precipitaţii Vânt Presiune Umiditate
    00:00 +7°C° 0,1 mm 3 m/s 749 mmHg 76%
    01:00 +7°C° 0,2 mm 3 m/s 748 mmHg 76%
    02:00 +7°C° 0,2 mm 3 m/s 748 mmHg 77%
    03:00 +7°C° 0,2 mm 3 m/s 748 mmHg 77%
    04:00 +7°C° 0,1 mm 2 m/s 748 mmHg 79%
    05:00 +6°C° 0,1 mm 2 m/s 748 mmHg 80%
    06:00 +6°C° 0,1 mm 2 m/s 749 mmHg 82%
    07:00 +7°C° 0,1 mm 2 m/s 749 mmHg 78%
    08:00 +8°C° 0,1 mm 3 m/s 749 mmHg 73%
    09:00 +8°C° 0,1 mm 3 m/s 750 mmHg 69%
    10:00 +9°C° 0,1 mm 3 m/s 750 mmHg 67%
    11:00 +10°C° 0,1 mm 3 m/s 750 mmHg 65%
    12:00 +11°C° 0,1 mm 3 m/s 750 mmHg 64%
    13:00 +10°C° 0,3 mm 3 m/s 750 mmHg 67%
    14:00 +10°C° 0,3 mm 3 m/s 750 mmHg 70%
    15:00 +10°C° 0,3 mm 3 m/s 749 mmHg 73%
    16:00 +9°C° 0,4 mm 2 m/s 750 mmHg 77%
    17:00 +9°C° 0,4 mm 2 m/s 750 mmHg 81%
    18:00 +8°C° 0,4 mm 2 m/s 751 mmHg 85%
    19:00 +7°C° 0,2 mm 2 m/s 751 mmHg 86%
    20:00 +7°C° 0,2 mm 2 m/s 751 mmHg 88%
    21:00 +7°C° 0,2 mm 2 m/s 752 mmHg 89%
    22:00 +7°C° 0 mm 2 m/s 752 mmHg 89%
    23:00 +6°C° 0 mm 2 m/s 752 mmHg 89%

    21 Ianuarie, Sâmbătă

    Timp Temperatura Precipitaţii Vânt Presiune Umiditate
    00:00 +6°C° 0 mm 2 m/s 752 mmHg 89%
    01:00 +6°C° 0,1 mm 2 m/s 752 mmHg 90%
    02:00 +5°C° 0,1 mm 3 m/s 752 mmHg 91%
    03:00 +5°C° 0,1 mm 3 m/s 752 mmHg 92%
    04:00 +5°C° 0,4 mm 4 m/s 752 mmHg 91%
    05:00 +6°C° 0,4 mm 4 m/s 752 mmHg 91%
    06:00 +6°C° 0,4 mm 5 m/s 753 mmHg 91%
    07:00 +7°C° 0,7 mm 5 m/s 753 mmHg 88%
    08:00 +8°C° 0,7 mm 5 m/s 754 mmHg 85%
    09:00 +9°C° 0,7 mm 6 m/s 754 mmHg 82%
    10:00 +9°C° 0,5 mm 6 m/s 754 mmHg 78%
    11:00 +10°C° 0,5 mm 6 m/s 754 mmHg 74%
    12:00 +11°C° 0,5 mm 6 m/s 754 mmHg 70%
    13:00 +11°C° 0,5 mm 6 m/s 754 mmHg 71%
    14:00 +10°C° 0,5 mm 6 m/s 754 mmHg 72%
    15:00 +10°C° 0,5 mm 5 m/s 754 mmHg 74%
    16:00 +9°C° 0,4 mm 5 m/s 754 mmHg 77%
    17:00 +10°C° 0,4 mm 4 m/s 754 mmHg 81%
    18:00 +9°C° 0,4 mm 3 m/s 755 mmHg 85%
    19:00 +9°C° 0,4 mm 3 m/s 755 mmHg 86%
    20:00 +8°C° 0,4 mm 3 m/s 755 mmHg 87%
    21:00 +8°C° 0,4 mm 3 m/s 756 mmHg 88%
    22:00 +8°C° 0,4 mm 3 m/s 756 mmHg 88%
    23:00 +8°C° 0,4 mm 3 m/s 756 mmHg 88%

    22 Ianuarie, Duminică

    Timp Temperatura Precipitaţii Vânt Presiune Umiditate
    00:00 +8°C° 0,4 mm 3 m/s 756 mmHg 89%
    01:00 +7°C° 0,4 mm 3 m/s 756 mmHg 89%
    02:00 +7°C° 0,4 mm 3 m/s 756 mmHg 89%
    03:00 +7°C° 0,4 mm 3 m/s 756 mmHg 89%
    04:00 +7°C° 0,3 mm 3 m/s 757 mmHg 89%
    05:00 +7°C° 0,3 mm 3 m/s 757 mmHg 89%
    06:00 +7°C° 0,3 mm 3 m/s 757 mmHg 89%
    07:00 +7°C° 0,1 mm 4 m/s 757 mmHg 85%
    08:00 +8°C° 0,1 mm 4 m/s 758 mmHg 81%
    09:00 +9°C° 0,1 mm 5 m/s 758 mmHg 77%
    10:00 +10°C° 0,2 mm 5 m/s 758 mmHg 74%
    11:00 +11°C° 0,2 mm 6 m/s 758 mmHg 71%
    12:00 +12°C° 0,2 mm 7 m/s 758 mmHg 67%
    13:00 +12°C° 0,2 mm 8 m/s 757 mmHg 66%
    14:00 +12°C° 0,2 mm 8 m/s 757 mmHg 66%
    15:00 +12°C° 0,2 mm 9 m/s 756 mmHg 65%
    16:00 +11°C° 0 mm 8 m/s 757 mmHg 68%
    17:00 +10°C° 0 mm 8 m/s 757 mmHg 72%
    18:00 +9°C° 0 mm 8 m/s 757 mmHg 75%
    19:00 +9°C° 0 mm 8 m/s 757 mmHg 76%
    20:00 +9°C° 0 mm 8 m/s 758 mmHg 77%
    21:00 +9°C° 0 mm 8 m/s 758 mmHg 78%
    22:00 +8°C° 0 mm 9 m/s 758 mmHg 78%
    23:00 +8°C° 0 mm 9 m/s 758 mmHg 78%
    Arată mai mult